Waarnemingen

Advertentie
Mijn weer
Bierset/Liege, België (6478): temperatuur & dauwpunt: 11.12.2018 02:00:00 - 17.12.2018 02:00:00 (CET)Bierset/Liege, België (6478): windsnelheid & windstoten: 11.12.2018 02:00:00 - 17.12.2018 02:00:00 (CET)Bierset/Liege, België (6478): windrichting: 11.12.2018 02:00:00 - 17.12.2018 02:00:00 (CET)Bierset/Liege, België (6478): luchtdruk: 11.12.2018 02:00:00 - 17.12.2018 02:00:00 (CET)Bierset/Liege, België (6478): zicht: 11.12.2018 02:00:00 - 17.12.2018 02:00:00 (CET)
Datum & Tijd tt [°C] td [°C] ff [km/u] ff [kn] fx [km/u] fx [kn] dd ppp [hPa] vv [km]
17.12.2018 02:00:00 4,6 3,0 18 10 36 19 Z 1013,3 10
17.12.2018 01:00:00 4,5 3,3 14 8 - - Z 1013,5 30
17.12.2018 00:00:00 4,0 3,0 15 8 32 18 Z 1014,0 10
16.12.2018 23:00:00 3,8 3,0 16 9 36 19 Z 1013,9 10
16.12.2018 22:00:00 3,3 2,6 21 11 - - Z 1013,6 10
16.12.2018 21:00:00 3,1 2,5 21 11 36 19 Z 1013,2 9
16.12.2018 20:00:00 2,8 2,4 18 10 29 16 Z 1013,0 6
16.12.2018 19:00:00 2,6 2,2 16 9 - - Z 1012,8 6
16.12.2018 18:00:00 2,2 1,8 18 10 29 16 Z 1012,6 6
16.12.2018 17:00:00 2,0 1,6 16 9 29 16 Z 1012,3 7
16.12.2018 16:00:00 2,6 1,7 15 8 - - ZZW 1012,2 10
16.12.2018 15:00:00 4,3 2,2 9 5 25 14 Z 1011,5 10
16.12.2018 14:00:00 3,0 1,6 11 6 32 18 Z 1011,6 10
16.12.2018 13:00:00 3,0 1,2 13 7 - - Z 1011,3 10
16.12.2018 12:00:00 2,2 0,8 15 8 29 16 Z 1011,6 9
16.12.2018 11:00:00 1,8 0,7 15 8 32 18 Z 1011,6 6
16.12.2018 10:00:00 1,0 0,4 16 9 - - Z 1011,5 3,8
16.12.2018 09:00:00 0,5 -0,6 15 8 29 16 ZZW 1011,5 6
16.12.2018 08:00:00 0,2 -1,3 16 9 29 16 Z 1010,9 7
16.12.2018 07:00:00 -0,2 -2,0 16 9 - - Z 1010,6 8
16.12.2018 06:00:00 -0,3 -1,9 21 11 36 19 Z 1010,7 7
16.12.2018 05:00:00 -0,1 -2,0 22 12 32 18 Z 1010,7 10
16.12.2018 04:00:00 -0,3 -1,3 15 8 - - Z 1010,9 8
16.12.2018 03:00:00 -1,3 -2,3 16 9 29 16 ZZO 1011,2 2,3
16.12.2018 02:00:00 -1,3 -2,4 18 10 32 18 ZZO 1011,8 2,8
16.12.2018 01:00:00 -0,8 -2,3 21 11 - - ZZO 1012,3 3,1
16.12.2018 00:00:00 -0,3 -3,0 22 12 54 29 ZZO 1012,0 5
15.12.2018 23:00:00 -0,3 -4,8 29 16 58 31 ZZO 1012,7 7
15.12.2018 22:00:00 -0,3 -6,4 18 10 - - ZZO 1014,5 10
15.12.2018 21:00:00 -0,6 -6,5 24 13 40 21 ZZO 1015,6 10
15.12.2018 20:00:00 -0,6 -6,4 26 14 40 21 ZZO 1017,0 10
15.12.2018 19:00:00 -0,8 -6,4 24 13 - - ZZO 1017,8 10
15.12.2018 18:00:00 -0,8 -6,3 16 9 32 18 ZO 1019,0 10
15.12.2018 17:00:00 -0,5 -6,3 15 8 22 12 ZZO 1020,3 10
15.12.2018 16:00:00 -0,1 -6,5 13 7 - - ZZO 1020,9 10
15.12.2018 15:00:00 0,0 -6,5 15 8 36 19 ZZO 1022,3 10
15.12.2018 14:00:00 0,0 -6,4 16 9 47 25 ZZO 1023,0 10
15.12.2018 13:00:00 0,0 -6,6 18 10 - - ZZO 1023,7 10
15.12.2018 12:00:00 -0,4 -7,0 15 8 29 16 ZZO 1024,4 10
15.12.2018 11:00:00 -0,7 -7,0 15 8 25 14 ZZO 1025,4 10
15.12.2018 10:00:00 -0,8 -7,5 15 8 - - ZZO 1025,5 10
15.12.2018 09:00:00 -0,8 -7,4 11 6 32 18 ZO 1025,6 10
15.12.2018 08:00:00 -0,8 -7,6 9 5 18 10 ZZO 1025,6 10
15.12.2018 07:00:00 -0,8 -7,3 8 4 - - ZZO 1025,6 10
15.12.2018 06:00:00 -0,6 -7,6 8 4 22 12 ZZO 1025,5 10
15.12.2018 05:00:00 -0,8 -7,7 8 4 22 12 ZZO 1026,0 10
15.12.2018 04:00:00 -0,6 -7,7 8 4 - - OZO 1025,9 10
15.12.2018 03:00:00 -0,4 -7,3 5 3 14 8 ZZO 1026,2 10
15.12.2018 02:00:00 -0,4 -6,8 9 5 14 8 Z 1026,3 10
15.12.2018 01:00:00 -0,3 -6,7 8 4 - - ZZO 1025,8 10
15.12.2018 00:00:00 -0,2 -7,0 8 4 14 8 ZO 1025,4 10
14.12.2018 23:00:00 -0,2 -6,8 8 4 18 10 OZO 1025,3 10
14.12.2018 22:00:00 -0,1 -7,1 9 5 - - OZO 1025,3 10
14.12.2018 21:00:00 -0,1 -7,0 5 3 14 8 O 1025,6 10
14.12.2018 20:00:00 0,1 -6,8 8 4 14 8 ZO 1025,6 10
14.12.2018 19:00:00 0,1 -6,9 8 4 - - O 1025,0 10
14.12.2018 18:00:00 0,1 -6,8 5 3 14 8 OZO 1024,9 10
14.12.2018 17:00:00 0,3 -7,2 9 5 18 10 O 1024,3 10
14.12.2018 16:00:00 0,5 -6,9 9 5 - - O 1023,7 10
14.12.2018 15:00:00 0,8 -7,1 13 7 43 23 OZO 1022,8 10
14.12.2018 14:00:00 1,4 -7,2 15 8 25 14 O 1022,5 10
14.12.2018 13:00:00 1,2 -6,2 15 8 - - OZO 1022,5 10
14.12.2018 12:00:00 0,4 -6,3 13 7 22 12 O 1022,9 10
14.12.2018 11:00:00 0,2 -5,4 9 5 22 12 O 1023,2 10
14.12.2018 10:00:00 -0,1 -5,5 11 6 - - ONO 1023,0 10
14.12.2018 09:00:00 -0,4 -5,3 11 6 32 18 ONO 1022,6 10
14.12.2018 08:00:00 -0,4 -5,5 9 5 22 12 O 1021,7 10
14.12.2018 07:00:00 -0,4 -6,0 13 7 - - O 1021,0 10
14.12.2018 06:00:00 -0,6 -6,1 15 8 43 23 O 1020,9 10
14.12.2018 05:00:00 -1,2 -5,4 9 5 22 12 NO 1020,9 10
14.12.2018 04:00:00 -1,9 -5,4 11 6 - - ONO 1021,1 10
14.12.2018 03:00:00 -2,1 -6,2 8 4 32 18 ONO 1021,2 10
14.12.2018 02:00:00 -1,7 -6,2 9 5 36 19 O 1021,1 10
14.12.2018 01:00:00 -1,1 -6,3 11 6 - - O 1020,9 10
14.12.2018 00:00:00 -2,1 -5,5 9 5 18 10 ONO 1021,0 10
13.12.2018 23:00:00 -3,5 -5,7 11 6 22 12 NO 1021,1 10
13.12.2018 22:00:00 -2,4 -5,1 9 5 - - ONO 1020,8 10
13.12.2018 21:00:00 -2,4 -4,9 9 5 18 10 NO 1020,5 10
13.12.2018 20:00:00 -2,6 -4,9 11 6 22 12 NO 1020,4 15
13.12.2018 19:00:00 -0,8 -4,7 13 7 - - ONO 1019,9 10
13.12.2018 18:00:00 -0,5 -4,2 15 8 25 14 ONO 1019,7 10
13.12.2018 17:00:00 0,2 -3,7 15 8 32 18 ONO 1019,5 10
13.12.2018 16:00:00 1,0 -4,0 16 9 - - ONO 1019,2 10
13.12.2018 15:00:00 1,6 -3,8 16 9 32 18 ONO 1018,8 10
13.12.2018 14:00:00 2,0 -4,6 16 9 32 18 O 1019,1 10
13.12.2018 13:00:00 1,6 -3,8 18 10 - - O 1019,4 10
13.12.2018 12:00:00 1,1 -2,4 16 9 32 18 O 1019,9 10
13.12.2018 11:00:00 0,3 -1,9 18 10 29 16 ONO 1020,4 10
13.12.2018 10:00:00 -0,7 -2,1 16 9 - - NO 1020,6 10
13.12.2018 09:00:00 -2,1 -3,3 13 7 22 12 NO 1020,6 10
13.12.2018 08:00:00 -0,5 -2,1 13 7 40 21 ONO 1020,3 10
13.12.2018 07:00:00 -0,2 -1,9 13 7 - - ONO 1020,0 10
13.12.2018 06:00:00 -0,1 -1,9 11 6 32 18 ONO 1020,4 10
13.12.2018 05:00:00 -0,1 -2,0 13 7 36 19 ONO 1020,9 10
13.12.2018 04:00:00 -0,9 -2,4 13 7 - - NO 1021,6 10
13.12.2018 03:00:00 -1,1 -3,0 13 7 22 12 ONO 1022,2 10
13.12.2018 02:00:00 -0,3 -2,4 13 7 29 16 ONO 1022,5 10
13.12.2018 01:00:00 1,0 -2,3 13 7 - - O 1022,6 10
13.12.2018 00:00:00 0,1 -1,6 11 6 25 14 O 1023,4 10
12.12.2018 23:00:00 0,0 -1,4 9 5 22 12 O 1023,7 8
12.12.2018 22:00:00 -0,3 -1,3 5 3 - - O 1024,0 8
12.12.2018 21:00:00 0,5 -0,9 5 3 32 18 ZO 1024,3 10
12.12.2018 20:00:00 0,9 -0,9 8 4 36 19 O 1024,5 10
12.12.2018 19:00:00 0,9 -0,6 9 5 - - ONO 1024,7 10
12.12.2018 18:00:00 1,6 -0,4 11 6 25 14 ONO 1024,5 10
12.12.2018 17:00:00 1,8 0,8 9 5 14 8 NO 1024,5 2,7
12.12.2018 16:00:00 1,4 0,9 9 5 - - ONO 1024,7 2,1
12.12.2018 15:00:00 1,8 1,4 9 5 18 10 NO 1025,0 4,0
12.12.2018 14:00:00 2,0 1,3 9 5 18 10 ONO 1025,3 2,0
12.12.2018 13:00:00 1,3 1,1 5 3 - - OZO 1025,8 1,2
12.12.2018 12:00:00 0,4 0,4 5 3 11 6 ZZO 1026,3 0,2
12.12.2018 11:00:00 -0,5 -0,7 5 3 22 12 ZO 1026,7 0,1
12.12.2018 10:00:00 -1,5 -1,6 8 4 - - ZO 1026,8 0,1
12.12.2018 09:00:00 -1,9 -1,9 9 5 22 12 ZO 1026,4 0,1
12.12.2018 08:00:00 -1,6 -1,9 5 3 7 4 ZZO 1026,2 0,5
12.12.2018 07:00:00 -0,5 -0,9 4 2 - - Z 1026,0 0,8
12.12.2018 06:00:00 0,5 0,4 5 3 11 6 ZW 1025,6 2,5
12.12.2018 05:00:00 1,0 0,5 5 3 18 10 Z 1025,6 3,5
12.12.2018 04:00:00 1,4 0,8 5 3 - - ZZO 1025,8 4,0
12.12.2018 03:00:00 1,8 0,7 0 0 7 4 N 1025,8 8
12.12.2018 02:00:00 2,5 1,4 5 3 7 4 ZW 1025,4 9
12.12.2018 01:00:00 2,6 1,7 5 3 - - ZW 1025,7 10
12.12.2018 00:00:00 2,9 1,0 8 4 11 6 ZW 1025,5 10
11.12.2018 23:00:00 2,6 1,5 4 2 7 4 W 1025,7 10
11.12.2018 22:00:00 3,5 1,9 4 2 - - - 1025,5 10
11.12.2018 21:00:00 2,9 1,8 5 3 11 6 W 1025,7 10
11.12.2018 20:00:00 3,2 1,2 8 4 14 8 WNW 1025,6 10
11.12.2018 19:00:00 3,1 1,6 9 5 - - W 1025,3 10
11.12.2018 18:00:00 3,9 1,7 5 3 11 6 W 1025,2 10
11.12.2018 17:00:00 4,2 1,9 8 4 14 8 WNW 1024,9 10
11.12.2018 16:00:00 4,9 2,1 9 5 - - WNW 1025,1 10
11.12.2018 15:00:00 5,2 1,9 8 4 25 14 WNW 1025,1 10
11.12.2018 14:00:00 5,2 1,4 11 6 25 14 WNW 1025,4 10
11.12.2018 13:00:00 5,0 1,5 9 5 - - WNW 1025,6 10
11.12.2018 12:00:00 4,2 1,6 9 5 22 12 WNW 1026,0 10
11.12.2018 11:00:00 3,6 1,6 16 9 18 10 W 1026,1 10
11.12.2018 10:00:00 2,8 1,4 9 5 - - W 1025,8 10
11.12.2018 09:00:00 2,4 1,1 8 4 18 10 W 1025,7 10
11.12.2018 08:00:00 2,4 1,0 13 7 18 10 W 1025,6 10
11.12.2018 07:00:00 2,2 0,9 13 7 - - W 1025,7 10
11.12.2018 06:00:00 2,1 1,0 11 6 22 12 W 1025,8 10
11.12.2018 05:00:00 2,7 1,4 13 7 22 12 W 1025,9 10
11.12.2018 04:00:00 2,4 1,6 15 8 - - W 1025,9 10
11.12.2018 03:00:00 2,0 1,4 13 7 18 10 W 1026,2 10
11.12.2018 02:00:00 1,3 0,9 11 6 18 10 W 1026,2 10

tt = temperatuur
td = dauwpunt
ff = windsnelheid
fx = windstoten
dd = windrichting
ppp = luchtdruk
vv = zicht

Weerstations in de omgeving